Location: Unspecified
(0.0000°N, 0.0000°E)
Time: 07:56:51
(UTC+00:00)

Transit 4A - Pass Details

Date: 04 October 2023
Orbit: 864 x 979 km, 66.8° (Epoch: 05 December)

Event Time Altitude Azimuth Distance (km) Brightness Sun altitude
Rises 22:00:38 0° 299° (WNW) 3,538 - -62.6°
Reaches altitude 10° 22:05:45 10° 262° (W) 2,567 - -63.9°
Maximum altitude 22:06:55 11° 250° (WSW) 2,519 - -64.2°
Drops below altitude 10° 22:08:05 10° 238° (WSW) 2,554 - -64.5°
Sets 22:13:08 0° 201° (SSW) 3,470 - -65.7°
